カタログに戻る

ATLAS 5 CENTAUR DEB

運用中HEO
NORAD 44645·DEBRIS·🇺🇸 United States

打ち上げ Oct 17, 2018 から Cape Canaveral Space Force Station

Loading…

次のパス (今後24時間)

TLE

最新Source: Space-Track

元期: Sep 14, 2026, 09:16 UTC

1 44645U 18079F   26257.38642111 -.00000162  00000-0  00000-0 0  9996
2 44645  13.5239   7.6504 4650016  12.5008 355.8417  1.89807015 54739

AllMySatでATLAS 5 CENTAUR DEBをリアルタイム追跡

Download on the App Store